Location: Manning
(56.9235°N, 117.6289°W)
Time: 03:31:08
(UTC+00:00)

Envisat - Visible Passes

Search period start: 27 November 2021 00:00
Search period end: 07 December 2021 00:00
Orbit: 764 x 766 km, 98.2° (Epoch: 26 November)

Date Brightness Start Highest point End Pass type
(mag) Time Alt. Az. Time Alt. Az. Time Alt. Az.
27 Nov 5.7 01:13:28 10° SW 01:17:14 21° W 01:21:02 10° NW visible
27 Nov 5.7 11:33:56 10° NE 11:37:13 17° E 11:40:30 10° SE visible
27 Nov 3.0 13:11:57 10° NNE 13:17:04 82° ESE 13:22:10 10° SSW visible
27 Nov 4.0 14:51:35 10° N 14:55:38 24° NW 14:59:39 10° WSW visible
28 Nov 4.7 00:35:18 10° SSW 00:39:59 36° W 00:44:42 10° NNW visible
28 Nov 4.0 12:35:10 10° NNE 12:40:04 45° E 12:44:56 10° S visible
28 Nov 3.4 14:14:21 10° N 14:19:05 39° WNW 14:23:47 10° SW visible
28 Nov 3.5 23:57:51 10° S 00:02:54 66° WSW 00:08:00 10° NNW visible
29 Nov 6.0 01:40:26 10° WSW 01:42:57 14° W 01:45:28 10° NW visible
29 Nov 5.1 11:58:39 10° NE 12:02:53 25° E 12:07:04 10° SE visible
29 Nov 2.9 13:37:18 10° NNE 13:42:23 68° WNW 13:47:25 10° SSW visible
30 Nov 5.4 01:01:25 10° SW 01:05:32 24° W 01:09:41 10° NW visible
30 Nov 5.9 11:22:49 10° NE 11:25:29 14° E 11:28:09 10° ESE visible
30 Nov 3.3 13:00:24 10° NNE 13:05:30 69° ESE 13:10:34 10° S visible
30 Nov 3.8 14:39:54 10° N 14:44:11 28° NW 14:48:27 10° WSW visible
01 Dec 4.4 00:23:30 10° S 00:28:21 43° W 00:33:13 10° NNW visible
01 Dec 4.4 12:23:41 10° NNE 12:28:26 38° E 12:33:10 10° SSE visible
01 Dec 3.2 14:02:44 10° N 14:07:36 46° WNW 14:12:26 10° SW visible
02 Dec 5.9 01:28:03 10° WSW 01:31:13 16° W 01:34:23 10° NW visible
02 Dec 5.3 11:47:19 10° NE 11:51:11 21° E 11:55:03 10° SE visible
02 Dec 2.9 13:25:43 10° NNE 13:30:50 81° WNW 13:35:56 10° SSW visible
02 Dec 4.2 15:05:32 10° N 15:09:13 20° NW 15:12:52 10° W visible
03 Dec 5.1 00:49:28 10° SSW 00:53:52 29° W 00:58:18 10° NNW visible
03 Dec 6.0 11:11:59 10° ENE 11:13:44 12° E 11:15:29 10° E visible
03 Dec 3.6 12:48:52 10° NNE 12:53:54 57° E 12:58:54 10° S visible
03 Dec 3.6 14:28:14 10° N 14:32:44 32° WNW 14:37:13 10° WSW visible
04 Dec 4.0 00:11:46 10° S 00:16:43 52° W 00:21:43 10° NNW visible
04 Dec 6.3 01:56:03 10° W 01:56:58 10° WNW 01:57:53 10° WNW visible
04 Dec 4.7 12:12:14 10° NNE 12:16:47 32° E 12:21:18 10° SSE visible
04 Dec 3.0 13:51:07 10° N 13:56:05 55° WNW 14:01:02 10° SW visible
05 Dec 5.8 01:15:50 10° SW 01:19:29 20° W 01:23:09 10° NW visible
05 Dec 5.6 11:36:02 10° NE 11:39:28 18° E 11:42:54 10° SE visible
05 Dec 3.0 13:14:09 10° NNE 13:19:17 86° ESE 13:24:23 10° SSW visible
05 Dec 4.0 14:53:49 10° N 14:57:47 23° NW 15:01:44 10° WSW visible
06 Dec 4.8 00:37:35 10° SSW 00:42:12 35° W 00:46:51 10° NNW visible
06 Dec 3.9 12:37:21 10° NNE 12:42:17 48° E 12:47:12 10° S visible
06 Dec 3.5 14:16:35 10° N 14:21:15 38° WNW 14:25:55 10° SW visible
